Location: Clinton NY
(43.0598°N, 75.3602°W)
Time: 15:54:06
(UTC-04:00)

Amateur Radio Satellites - All Passes

Search period start: 25 July 2014 15:24
Search period end: 26 July 2014 15:24
Location: Clinton NY, 43.0598°N, 75.3602°W

Satellite Date Start Highest point End Downlink Frequencies (MHz)
Time Altitude Azimuth
Gurwin Techsat 1B 25 Jul 15:32:53 15:38:02 51° 260° (W) 15:43:13 435.225 FM
AO-27 25 Jul 15:34:19 15:38:10 21° 267° (W) 15:42:02 436.795 MHz FM
Uribyol 2 25 Jul 15:36:57 15:40:33 19° 268° (W) 15:44:10 436.500 FM
Uosat F 25 Jul 15:37:14 15:41:44 33° 67° (ENE) 15:46:14 435.120 FM
Saudisat 1A 25 Jul 15:44:47 15:46:32 12° 33° (NNE) 15:48:17 436.775 MHz
AO-7 25 Jul 15:57:18 16:05:32 65° 66° (ENE) 16:13:47 29.400 - 29.500 MHz
KITSAT 1 25 Jul 16:04:56 16:13:03 71° 55° (NE) 16:21:04 435.175 FM
SO-50 25 Jul 16:10:56 16:12:49 12° 328° (NNW) 16:14:43 436.795 FM
OPAL 25 Jul 16:14:11 16:18:04 22° 96° (E) 16:21:57 ?
JAS-1B 25 Jul 16:35:35 16:42:36 27° 273° (W) 16:50:22 435.800 - 435.900 CW/SSB
UOSAT-12 25 Jul 16:49:51 16:54:07 36° 313° (NW) 16:58:29 437.025 FM, 437.400 FM
TMSAT-1 25 Jul 16:54:00 16:56:38 14° 271° (W) 16:59:17 436.925 FM
Uosat F 25 Jul 17:16:04 17:20:30 31° 264° (W) 17:24:57 435.120 FM
Hamsat 25 Jul 17:21:46 17:25:06 24° 67° (ENE) 17:28:28 145.90 MHz
JAS-2 25 Jul 17:21:52 17:28:44 35° 64° (ENE) 17:35:16 435.800 - 435.900 CW/SSB, 435.910 FM
Saudisat 1A 25 Jul 17:22:37 17:27:01 63° 53° (NE) 17:31:22 436.775 MHz
RS-15 25 Jul 17:40:03 17:49:15 29° 336° (NNW) 17:58:29 29.354 - 29.394 USB, Beacon 29.352 USB
AO-7 25 Jul 17:51:47 17:58:49 30° 265° (W) 18:05:54 29.400 - 29.500 MHz
OPAL 25 Jul 17:52:19 17:57:09 48° 292° (WNW) 18:02:02 ?
KITSAT 1 25 Jul 18:01:18 18:07:44 27° 255° (WSW) 18:14:09 435.175 FM
STRAND 1 25 Jul 18:32:12 18:34:31 13° 89° (E) 18:36:50 ?
SO-67 25 Jul 18:49:54 18:52:57 30° 71° (ENE) 18:56:02 435.3500 MHz FM
Hamsat 25 Jul 18:57:16 19:00:57 30° 264° (W) 19:04:40 145.90 MHz
HO-68 25 Jul 19:01:06 19:04:03 13° 48° (NE) 19:07:01 435.675 MHz FM
Saudisat 1A 25 Jul 19:03:38 19:06:05 15° 250° (WSW) 19:08:32 436.775 MHz
JAS-2 25 Jul 19:05:47 19:13:26 55° 261° (W) 19:20:46 435.800 - 435.900 CW/SSB, 435.910 FM
RS-15 25 Jul 19:57:57 20:06:26 24° 12° (NNE) 20:15:01 29.354 - 29.394 USB, Beacon 29.352 USB
STRAND 1 25 Jul 20:09:10 20:14:18 77° 286° (WNW) 20:19:22 ?
SO-67 25 Jul 20:23:55 20:26:07 16° 267° (W) 20:28:19 435.3500 MHz FM
HO-68 25 Jul 20:43:19 20:50:20 61° 68° (ENE) 20:57:22 435.675 MHz FM
UKube-1 25 Jul 20:54:44 20:58:48 39° 70° (ENE) 21:02:53 145.840 MHz, 145.915 MHz
SO-50 25 Jul 21:17:29 21:21:21 24° 43° (NE) 21:25:16 436.795 FM
Oscar 11 25 Jul 21:43:45 21:47:59 62° 74° (ENE) 21:52:15 145.825 FM, Beacon 2401.500 USB
MaSat-1 25 Jul 21:46:39 21:50:00 27° 105° (ESE) 21:53:49 437.345 MHz
STRAND 1 25 Jul 21:51:19 21:52:36 11° 304° (NW) 21:53:53 ?
FUNcube-1 25 Jul 21:55:31 21:59:20 31° 69° (ENE) 22:03:06 145.950 - 145.970 MHz USB
RS-15 25 Jul 22:11:35 22:22:14 51° 44° (NE) 22:33:10 29.354 - 29.394 USB, Beacon 29.352 USB
UKube-1 25 Jul 22:31:55 22:35:09 20° 266° (W) 22:38:24 145.840 MHz, 145.915 MHz
HO-68 25 Jul 22:32:33 22:38:27 27° 266° (W) 22:44:22 435.675 MHz FM
SO-50 25 Jul 22:57:34 23:02:13 54° 241° (WSW) 23:06:54 436.795 FM
Lituanica SAT-1 25 Jul 23:17:02 23:18:38 20° 139° (SE) 23:20:14 437.275 MHz beacon
Oscar 11 25 Jul 23:22:50 23:24:35 12° 270° (W) 23:26:21 145.825 FM, Beacon 2401.500 USB
MaSat-1 25 Jul 23:23:29 23:27:13 32° 307° (NW) 23:31:28 437.345 MHz
FUNcube-1 25 Jul 23:32:10 23:35:45 24° 265° (W) 23:39:17 145.950 - 145.970 MHz USB
UOSAT-12 25 Jul 23:38:17 23:42:42 37° 48° (NE) 23:47:04 437.025 FM, 437.400 FM
RS-15 26 Jul 00:24:10 00:34:45 55° 247° (WSW) 00:45:44 29.354 - 29.394 USB, Beacon 29.352 USB
Sapphire 26 Jul 00:35:55 00:38:50 15° 104° (ESE) 00:41:46 437.095 MHz 1200 baud AX-25 AFSK
Lituanica SAT-1 26 Jul 00:49:17 00:51:01 24° 335° (NNW) 00:52:46 437.275 MHz beacon
PCSat 26 Jul 01:07:34 01:12:15 31° 110° (ESE) 01:16:58 145.825 MHz
UOSAT-12 26 Jul 01:18:39 01:22:46 30° 246° (WSW) 01:26:49 437.025 FM, 437.400 FM
ISS 26 Jul 01:20:33 01:23:52 66° 144° (SE) 01:27:13 145.800 FM
Oscar 16 26 Jul 01:34:25 01:38:02 19° 92° (E) 01:41:38 437.025 USB, Beacon 2401.1428
ITAMSAT 1 26 Jul 01:50:07 01:51:20 11° 88° (E) 01:52:33 435.822 SSB
AO-Echo 26 Jul 01:51:55 01:53:47 12° 87° (E) 01:55:37 ?
AO-27 26 Jul 02:06:36 02:09:55 17° 91° (E) 02:13:12 436.795 MHz FM
Uribyol 2 26 Jul 02:08:30 02:12:01 18° 92° (E) 02:15:31 436.500 FM
Sapphire 26 Jul 02:16:09 02:21:33 79° 301° (WNW) 02:27:00 437.095 MHz 1200 baud AX-25 AFSK
JAS-1B 26 Jul 02:29:05 02:36:45 27° 87° (E) 02:43:35 435.800 - 435.900 CW/SSB
Oscar 19 26 Jul 02:44:46 02:49:57 81° 104° (ESE) 02:55:08 437.125 CW, 437.150 USB
PCSat 26 Jul 02:50:26 02:55:31 41° 308° (NW) 03:00:40 145.825 MHz
AO-40 26 Jul 02:54:01 04:27:35 20° 221° (SW) 07:17:59 Beacon 2401.320
ISS 26 Jul 02:57:53 03:00:49 27° 342° (NNW) 03:03:46 145.800 FM
Oscar 16 26 Jul 03:12:41 03:17:43 55° 289° (WNW) 03:22:45 437.025 USB, Beacon 2401.1428
TMSAT-1 26 Jul 03:26:14 03:30:47 28° 95° (E) 03:35:17 436.925 FM
ITAMSAT 1 26 Jul 03:26:20 03:31:33 89° 105° (ESE) 03:36:43 435.822 SSB
AO-Echo 26 Jul 03:28:04 03:33:14 82° 285° (WNW) 03:38:12 ?
OPAL 26 Jul 03:29:52 03:34:31 43° 67° (ENE) 03:39:12 ?
AO-27 26 Jul 03:44:44 03:49:51 62° 288° (WNW) 03:54:57 436.795 MHz FM
Uribyol 2 26 Jul 03:46:48 03:51:52 57° 289° (WNW) 03:56:53 436.500 FM
Gurwin Techsat 1B 26 Jul 03:47:57 03:53:13 61° 101° (E) 03:58:27 435.225 FM
Lituanica SAT-1 26 Jul 03:56:21 03:57:10 12° 14° (NNE) 03:57:59 437.275 MHz beacon
AO-7 26 Jul 03:59:30 04:04:53 18° 90° (E) 04:10:13 29.400 - 29.500 MHz
Sapphire 26 Jul 04:02:33 04:05:53 16° 322° (NW) 04:09:13 437.095 MHz 1200 baud AX-25 AFSK
JAS-1B 26 Jul 04:18:32 04:28:12 76° 289° (WNW) 04:36:33 435.800 - 435.900 CW/SSB
Oscar 19 26 Jul 04:25:54 04:28:37 15° 301° (WNW) 04:31:20 437.125 CW, 437.150 USB
ISS 26 Jul 04:35:51 04:38:19 19° 2° (N) 04:40:48 145.800 FM
TMSAT-1 26 Jul 05:05:54 05:10:46 38° 292° (WNW) 05:15:37 436.925 FM
ITAMSAT 1 26 Jul 05:07:55 05:10:17 13° 303° (WNW) 05:12:38 435.822 SSB
AO-Echo 26 Jul 05:09:27 05:11:06 12° 304° (WNW) 05:12:45 ?
OPAL 26 Jul 05:09:42 05:13:35 23° 264° (W) 05:17:29 ?
Uosat F 26 Jul 05:22:01 05:27:04 77° 103° (ESE) 05:32:04 435.120 FM
Lituanica SAT-1 26 Jul 05:27:54 05:29:55 67° 32° (NNE) 05:31:55 437.275 MHz beacon
Gurwin Techsat 1B 26 Jul 05:29:00 05:32:43 20° 299° (WNW) 05:36:24 435.225 FM
STRAND 1 26 Jul 05:48:25 05:52:22 23° 63° (ENE) 05:56:20 ?
AO-7 26 Jul 05:50:21 05:58:45 88° 109° (ESE) 06:07:04 29.400 - 29.500 MHz
MaSat-1 26 Jul 06:04:04 06:07:17 16° 44° (NE) 06:10:29 437.345 MHz
Oscar 10/S400 26 Jul 06:09:28 07:26:16 34° 241° (WSW) 11:24:44 145.825 - 145.975 CW/USB, Beacon 145.810 USB
JAS-1B 26 Jul 06:10:25 06:16:58 21° 311° (NW) 06:23:06 435.800 - 435.900 CW/SSB
ISS 26 Jul 06:12:38 06:15:45 34° 22° (NNE) 06:18:52 145.800 FM
JAS-2 26 Jul 06:16:42 06:21:07 21° 89° (E) 06:25:12 435.800 - 435.900 CW/SSB, 435.910 FM
KITSAT 1 26 Jul 06:34:18 06:41:46 43° 110° (ESE) 06:49:15 435.175 FM
Hamsat 26 Jul 06:41:26 06:45:31 42° 98° (E) 06:49:37 145.90 MHz
Uosat F 26 Jul 07:02:30 07:05:13 15° 301° (WNW) 07:07:56 435.120 FM
STRAND 1 26 Jul 07:26:16 07:31:14 48° 260° (W) 07:36:14 ?
Saudisat 1A 26 Jul 07:32:34 07:34:29 13° 108° (ESE) 07:36:23 436.775 MHz
MaSat-1 26 Jul 07:40:08 07:45:30 82° 63° (ENE) 07:50:38 437.345 MHz
AO-7 26 Jul 07:44:22 07:50:32 24° 309° (NW) 07:56:41 29.400 - 29.500 MHz
SO-67 26 Jul 07:45:39 07:48:49 31° 97° (E) 07:51:56 435.3500 MHz FM
ISS 26 Jul 07:49:20 07:52:31 41° 220° (SW) 07:55:42 145.800 FM
JAS-2 26 Jul 08:00:43 08:06:47 57° 290° (WNW) 08:12:11 435.800 - 435.900 CW/SSB, 435.910 FM
Hamsat 26 Jul 08:18:12 08:21:12 19° 295° (WNW) 08:24:13 145.90 MHz
KITSAT 1 26 Jul 08:29:16 08:37:04 50° 311° (NW) 08:44:55 435.175 FM
Saudisat 1A 26 Jul 09:09:03 09:13:28 74° 305° (NW) 09:17:55 436.775 MHz
SO-67 26 Jul 09:19:28 09:21:38 16° 293° (WNW) 09:23:48 435.3500 MHz FM
MaSat-1 26 Jul 09:19:28 09:22:07 14° 261° (W) 09:24:41 437.345 MHz
Sapphire 26 Jul 09:20:44 09:24:38 20° 41° (NE) 09:28:30 437.095 MHz 1200 baud AX-25 AFSK
Oscar 11 26 Jul 09:33:17 09:34:06 10° 89° (E) 09:34:54 145.825 FM, Beacon 2401.500 USB
PCSat 26 Jul 09:53:59 09:58:53 33° 49° (NE) 10:03:46 145.825 MHz
HO-68 26 Jul 09:57:24 10:04:26 57° 102° (ESE) 10:11:25 435.675 MHz FM
UKube-1 26 Jul 10:17:53 10:22:14 64° 102° (ESE) 10:26:32 145.840 MHz, 145.915 MHz
KITSAT 1 26 Jul 10:29:29 10:34:42 18° 337° (NNW) 10:39:56 435.175 FM
Saudisat 1A 26 Jul 10:51:38 10:53:50 13° 325° (NW) 10:56:03 436.775 MHz
Sapphire 26 Jul 11:03:16 11:08:44 82° 241° (WSW) 11:14:08 437.095 MHz 1200 baud AX-25 AFSK
Oscar 11 26 Jul 11:06:26 11:10:46 73° 285° (WNW) 11:15:05 145.825 FM, Beacon 2401.500 USB
FUNcube-1 26 Jul 11:19:24 11:23:31 56° 100° (E) 11:27:38 145.950 - 145.970 MHz USB
PCSat 26 Jul 11:37:20 11:42:22 40° 248° (WSW) 11:47:23 145.825 MHz
HO-68 26 Jul 11:45:43 11:51:45 31° 300° (WNW) 11:57:47 435.675 MHz FM
UKube-1 26 Jul 11:55:42 11:57:55 14° 299° (WNW) 12:00:07 145.840 MHz, 145.915 MHz
Oscar 19 26 Jul 12:25:42 12:29:00 18° 61° (ENE) 12:32:18 437.125 CW, 437.150 USB
KITSAT 1 26 Jul 12:30:17 12:34:07 14° 8° (N) 12:37:57 435.175 FM
RS-15 26 Jul 12:39:47 12:47:46 23° 101° (ESE) 12:55:36 29.354 - 29.394 USB, Beacon 29.352 USB
Sapphire 26 Jul 12:49:56 12:51:14 11° 259° (WSW) 12:52:33 437.095 MHz 1200 baud AX-25 AFSK
Oscar 16 26 Jul 12:52:09 12:56:35 31° 66° (ENE) 13:01:03 437.025 USB, Beacon 2401.1428
FUNcube-1 26 Jul 12:57:21 12:59:28 14° 297° (WNW) 13:01:36 145.950 - 145.970 MHz USB
AO-Echo 26 Jul 13:04:38 13:08:25 20° 62° (ENE) 13:12:12 ?
ITAMSAT 1 26 Jul 13:07:43 13:11:30 21° 62° (ENE) 13:15:18 435.822 SSB
SO-50 26 Jul 13:13:34 13:17:42 39° 117° (ESE) 13:21:56 436.795 FM
JAS-1B 26 Jul 13:13:38 13:20:55 28° 54° (NE) 13:28:42 435.800 - 435.900 CW/SSB
AO-27 26 Jul 13:25:18 13:29:46 30° 65° (ENE) 13:34:15 436.795 MHz FM
Uribyol 2 26 Jul 13:27:00 13:31:32 32° 66° (ENE) 13:36:05 436.500 FM
Gurwin Techsat 1B 26 Jul 13:33:06 13:36:04 15° 59° (ENE) 13:39:02 435.225 FM
Oscar 19 26 Jul 14:02:45 14:07:49 65° 258° (WSW) 14:12:55 437.125 CW, 437.150 USB
KITSAT 1 26 Jul 14:25:57 14:32:48 29° 37° (NE) 14:39:36 435.175 FM
Oscar 16 26 Jul 14:31:15 14:35:52 34° 263° (W) 14:40:31 437.025 USB, Beacon 2401.1428
AO-Echo 26 Jul 14:41:29 14:46:42 60° 259° (W) 14:51:59 ?
ITAMSAT 1 26 Jul 14:45:28 14:50:35 56° 259° (W) 14:55:44 435.822 SSB
RS-15 26 Jul 14:47:26 14:58:36 90° 302° (WNW) 15:09:36 29.354 - 29.394 USB, Beacon 29.352 USB
TMSAT-1 26 Jul 14:47:47 14:52:51 48° 70° (ENE) 14:57:57 436.925 FM
SO-50 26 Jul 14:54:29 14:58:22 28° 316° (NW) 15:02:19 436.795 FM
AO-7 26 Jul 14:59:14 15:06:15 31° 55° (NE) 15:13:16 29.400 - 29.500 MHz
Uosat F 26 Jul 15:00:03 15:03:02 16° 60° (ENE) 15:06:01 435.120 FM
JAS-1B 26 Jul 15:01:28 15:10:12 84° 255° (WSW) 15:20:06 435.800 - 435.900 CW/SSB
AO-27 26 Jul 15:04:20 15:09:09 37° 263° (W) 15:13:59 436.795 MHz FM
Uribyol 2 26 Jul 15:06:14 15:10:56 34° 263° (W) 15:15:40 436.500 FM
Gurwin Techsat 1B 26 Jul 15:10:02 15:15:21 80° 256° (WSW) 15:20:42 435.225 FM
